Regional Weather Roundup
Issued by NWS New Orleans/Baton Rouge, LA

Home | Current Version | Previous Version | Graphics & Text | Print | Product List | Glossary On
Versions: 1 2 3 4 5 6 7 8 9 10 11 12 13 14 15 16 17 18 19 20 21 22 23 24 25 26 27 28 29 30 31 32 33 34 35 36 37 38 39 40 41 42 43 44 45 46 47 48 49 50
704
ASUS44 KLIX 290601
RWRLIX
NEW ORLEANS REGIONAL WEATHER ROUNDUP
NATIONAL WEATHER SERVICE NEW ORLEANS LA
100 AM CDT TUE JUL 29 2014

NOTE: "FAIR" INDICATES FEW OR NO CLOUDS BELOW 12,000 FEET WITH NO
      SIGNIFICANT WEATHER AND/OR OBSTRUCTIONS TO VISIBILITY.
      SKY/WX - SKY CONDITION AND SIGNIFICANT WEATHER.
      TMP - AIR TEMPERATURE.     DP    - DEWPOINT TEMPERATURE.
      RH  - RELATIVE HUMIDITY.   PRES  - PRESSURE.
      HI  - HEAT INDEX.          WCI   - WIND CHILL INDEX.

*  THESE STATIONS ARE NOT NWS OR FAA STATIONS AND ARE NOT UNDER
   NWS QUALITY CONTROL.

LAZ038-040-048-061>063-065>067-069-290700-
SOUTHEAST LOUISIANA

CITY           SKY/WX    TMP DP  RH WIND       PRES   REMARKS
N.O. AUDUBON     N/A     85  79  83 MISG        N/A  HX  97
6HR MIN TEMP:  84; 6HR MAX TEMP:  91;

N.O. INTL ARPT MOCLDY    84  77  79 N6        30.00F
6HR MIN TEMP:  82; 6HR MAX TEMP:  90;

N.O. LAKEFRONT MOCLDY    85  76  74 N16       30.00F
6HR MIN TEMP:  84; 6HR MAX TEMP:  89;

N.O. DOWNTOWN* CLOUDY    84  73  70 N5        30.00F
6HR MIN TEMP:  84; 6HR MAX TEMP:  91;

SLIDELL        PTCLDY    78  74  87 N3        29.99F
6HR MIN TEMP:  78; 6HR MAX TEMP:  89; 6HR PCP:  0.03;

BATON ROUGE    MOCLDY    77  72  84 CALM      30.01F
6HR MIN TEMP:  76; 6HR MAX TEMP:  86;

BOOTHVILLE     PTCLDY    84  80  88 W7        30.00F HX  97
6HR MIN TEMP:  83; 6HR MAX TEMP:  87;

BELLE CHASSE   MOCLDY    81  77  88 CALM      29.99F
6HR MIN TEMP:  81; 6HR MAX TEMP:  89;

BOGALUSA*        N/A     78  72  82 CALM      30.03S
6HR MIN TEMP:  77; 6HR MAX TEMP:  88;

GALLIANO*      NOT AVBL
NEW ROADS*       N/A     74  74  98 CALM      30.01F
6HR MIN TEMP:  74; 6HR MAX TEMP:  85;

GONZALES*        N/A     77  75  93 CALM      30.00F
6HR MIN TEMP:  77; 6HR MAX TEMP:  86;

HAMMOND*       MOCLDY    79  73  83 CALM      30.02F
HOUMA*         MOCLDY    81  71  72 NW5       30.00F
6HR MIN TEMP:  81; 6HR MAX TEMP:  87;

PORT FOURCHON* MOCLDY    84  79  84 W10       30.02F HX  96

$$

MSZ070-080>082-290700-
SOUTHERN MISSISSIPPI

CITY           SKY/WX    TMP DP  RH WIND       PRES   REMARKS
MCCOMB         PTCLDY    76  69  79 N5        30.03F
6HR MIN TEMP:  76; 6HR MAX TEMP:  82;

GULFPORT       PTCLDY    85  73  67 N9        29.99S
6HR MIN TEMP:  84; 6HR MAX TEMP:  92;

BILOXI         PTCLDY    82  74  76 VRB5      29.99S
6HR MIN TEMP:  82; 6HR MAX TEMP:  89;

PASCAGOULA     CLEAR     80  72  76 N7        29.98F
6HR MIN TEMP:  80; 6HR MAX TEMP:  89;


$$

COASTAL OBSERVATIONS
LAKE AND NEARSHORE STATIONS

STATION/POSITION TIME  TEMP    WIND        PRES    WAVE
                       AIR SEA DIR/SP/G            HT/PER
                 (UTC) (F)     (DEG/KT/KT) (MB)    (FT/S)
PASCAGOULA       0500   83     340/  8/ 12 1014.9
WAVELAND YACHT   0500   81     330/  7/  8 1015.3
GRAND ISLE       0500   85 87  280/ 12/ 16 1016.7
SOUTHWEST PASS   0500   85 84  300/  8/ 15 1016.7
NEW CANAL        0500   85 85  360/ 11/ 13 1016.3
SHELL BEACH      0500   82 83  310/  3/  4 1015.7

OFFSHORE STATIONS

STATION/POSITION TIME  TEMP    WIND        PRES    WAVE
                       AIR SEA DIR/SP/G            HT/PER
                 (UTC) (F)     (DEG/KT/KT) (MB)    (FT/S)
64 S DAUPHIN ISL 0518   86 86  280/ 16/ 19 1015.3

$$




USA.gov is the U.S. government's official web portal to all federal, state and local government web resources and services.